YAOGAN 7 DEB

Satellite information

Favourite Embed

Satellite Type and Status

DEBRISIN ORBIT

Key statistics

Satellite YAOGAN 7 DEB at a glance.

Uptime

5688

Days in orbit

Revolutions

≈ 14.3

Per day

Orbit

SSO

Sun Synchronous Orbit

Inclination

97.8

Latest

Satellite identification and parameters

Extended collection of information and parameters for YAOGAN 7 DEB.

Object identification

Identified? True

Debris? True

Object name: YAOGAN 7 DEB

International designator: 2009-069B

Object number (NORAD): 38265

Object ID (CCSDS): 38265

Country: PEOPLES REPUBLIC OF CHINA (PRC)

Current information (Y/N): Y

RCS size: SMALL

Orbital parameters

Period: 100.59 minutes

Inclination: 97.8337 deg

SMA: 7164.67 km

Apoapsis: 938.336 km

Periapsis: 634.735 km

RAAN: 116.9792 deg

Eccentricy: 0.0211874

Argument of periapsis: 239.6242 deg

Mean anomaly: 118.3847 deg

Mean motion: 14.31556354 rev/day

Mean motion (dot): 0.00000862 rev/day2

B* drag term: 0.00026628 1/REarth

Two-line elements (TLE)

Creation date: July 5, 2025, 10:56 p.m.

Reference frame: TEME

Reference center: EARTH

Epoch: July 5, 2025, 6:03 p.m. UTC

TLE line 0: 0 YAOGAN 7 DEB

TLE line 1: 1 38265U 09069B 25186.75240488 .00000862 00000-0 26628-3 0 9991

TLE line 2: 2 38265 97.8337 116.9792 0211874 239.6242 118.3847 14.31556354803560

Live tracking on map

Real-time ground track for satellite YAOGAN 7 DEB.

In-orbit conjunctions

A list of the most updated potential collisions computed for object YAOGAN 7 DEB.

Target Orbit TCA Probability of collision Miss distance Type
METEOR 2-11 DEB LEO 2024-12-01 10:51:36 0.000104366 551.0 (m) DEBRIS

Associated space launch

Chinese Earth observation satellite, likely also used for military reconnaissance

YAOGAN 7 DEB was lifted into orbit during the mission ‘Long March 2D | Yaogan Weixing 7’, on board a Long March 2D space rocket.

The launch took place on Dec. 9, 2009, 8:42 a.m. from Launch Area 4 (SLS-2 / 603).

For more information about the launch, click the button.

Launch to space Long March 2D | Yaogan Weixing 7
Long March 2D | Yaogan Weixing 7

Agency: N/A

Status: Launch Successful

Launch date: Dec. 9, 2009, 8:42 a.m. UTC

Rocket: Long March 2D

Launch pad: Launch Area 4 (SLS-2 / 603)

Location: Jiuquan Satellite Launch Center, People's Republic of China

...

Latest news about this satellite

There are no fresh news available about this satellite. Check back as we update our databases every day.


Newsletter sign-up

Weekly statistics, charts and insights to help you stay on top of the space industry.